Location: George Washington National Forest Helicopter Landing Site
(38.6463°N, 79.0851°W)
Time: 11:46:34
(UTC-04:00)

Tiros 1 - Pass Details

Date: 28 August 2019
Orbit: 630 x 664 km, 48.4° (Epoch: 23 October)

Event Time Altitude Azimuth Distance (km) Brightness Sun altitude
Exits shadow 02:53:22 14° 62° (ENE) 1,766 9.9 -36.7°
Drops below altitude 10° 02:54:13 10° 68° (ENE) 2,024 10.2 -36.6°
Sets 02:56:51 0° 81° (E) 2,938 11.0 -36.3°
